Wind_Speed
10 12 15 15 15 14 12 8 6 5 5 8 9 9 10 12 12 14 12 6 8 1 5 3 5 6 5 6 10 16 11 9 5 3 2 6 14 18 27 32 30 27 26 24 21 21 21 21 20 20 20 21 21 21 20 17 17 16 15 15 15 16 16 15 14 14 13 13 13 12 13 13 13 14 14 14 14 13 11 11 10 10 11 11 10 10 11 12 12 11 11 11 10 10 9 8 7
9 12 15 15 14 11 6 4 7 6 7 9 8 10 10 11 11 13 14 9 6 3 7 4 3 4 1 2 9 15 12 12 11 8 7 16 21 22 29 28 28 28 26 24 21 21 22 22 20 21 21 22 22 21 21 19 18 17 17 17 17 17 16 15 14 14 14 13 13 12 12 12 12 12 13 13 14 14 11 10 10 9 10 11 8 8 9 10 10 9 9 9 9 9 8 8 7
9 10 13 14 11 9 5 5 7 7 8 9 8 10 11 13 11 14 17 6 5 10 6 2 2 2 3 1 9 11 9 11 13 11 9 19 19 19 25 26 28 27 25 23 19 21 22 22 21 21 22 22 21 21 21 20 20 19 18 16 17 17 16 15 14 14 13 13 12 11 11 10 10 11 11 12 13 13 12 11 10 9 8 9 7 5 7 8 8 7 8 9 9 9 8 8 7
9 9 11 11 7 6 6 6 7 8 9 8 8 10 13 14 13 15 9 9 13 11 4 5 4 2 5 5 12 11 9 10 12 11 8 14 17 20 25 25 27 25 24 21 19 21 22 23 22 21 22 22 21 21 22 21 20 19 18 16 17 17 16 15 14 14 13 12 11 10 10 9 9 9 10 10 10 10 10 10 10 10 9 9 7 5 7 8 7 5 7 8 9 9 9 8 8
9 9 12 10 5 5 5 5 7 9 9 8 8 10 15 14 16 14 3 12 10 7 3 4 7 4 8 9 8 7 9 9 11 12 11 17 23 24 24 24 24 23 23 20 19 21 22 23 22 22 22 22 22 22 21 21 21 19 18 17 17 17 16 15 14 13 12 12 10 9 8 7 7 6 7 7 7 7 8 9 9 9 9 9 8 6 7 7 5 4 6 7 9 9 9 8 8
10 11 12 11 6 5 5 7 8 10 10 11 10 11 15 15 17 16 5 6 4 5 5 3 7 6 9 10 7 7 8 9 10 13 17 24 27 24 23 22 22 23 23 21 19 21 23 23 23 23 22 22 23 22 22 22 22 20 18 17 16 16 16 16 14 13 12 11 9 8 7 6 6 6 7 7 7 7 8 9 9 9 9 9 7 7 6 4 3 4 5 7 8 9 9 8 8
11 9 8 9 5 4 7 10 10 10 11 14 13 13 17 17 18 18 14 8 1 2 3 0 4 4 5 7 9 8 10 11 9 14 22 28 29 24 22 21 22 25 24 21 20 22 24 24 24 22 22 24 25 24 23 23 22 20 18 17 16 17 17 16 15 13 12 10 9 8 7 7 7 8 9 8 8 8 8 9 10 10 9 9 8 6 4 3 2 3 4 6 7 9 9 8 8
12 8 4 6 6 5 8 10 12 11 12 16 17 17 19 19 19 18 14 10 4 3 4 2 4 3 5 7 8 7 10 14 15 21 26 28 28 23 21 22 25 25 24 22 21 23 24 25 24 23 24 26 25 25 23 23 22 20 18 17 16 16 16 16 15 13 11 10 9 8 7 8 8 9 9 9 8 7 8 8 9 11 10 10 9 6 3 3 1 3 4 5 6 8 9 8 7
11 8 5 7 7 7 9 10 12 13 14 17 18 20 21 21 20 19 19 15 2 2 11 7 6 5 9 12 11 8 11 21 25 27 26 25 26 22 21 24 26 25 24 24 23 23 22 25 24 23 25 25 24 22 22 22 21 20 18 17 16 16 16 16 15 13 11 10 9 8 8 8 8 9 9 8 7 6 6 5 6 9 11 11 10 6 3 4 3 3 3 3 5 7 8 8 7
8 7 5 6 7 9 11 10 11 12 15 17 18 21 20 20 19 20 20 10 2 4 11 9 10 3 14 13 10 9 14 24 28 27 25 25 24 20 20 26 27 26 25 25 24 21 20 24 24 24 25 24 22 21 20 21 20 19 17 17 17 16 16 16 15 13 12 11 9 8 7 7 8 8 8 8 8 7 6 4 4 6 10 12 12 8 5 5 5 4 3 2 4 5 6 7 6
6 6 6 7 8 10 10 10 12 12 15 16 17 18 18 19 18 22 18 1 3 7 9 9 8 7 16 11 7 12 18 24 27 27 25 24 21 19 23 29 28 26 26 25 23 21 20 21 22 25 25 23 22 21 20 20 20 18 18 18 17 17 16 15 14 13 12 11 10 9 8 8 8 8 9 9 9 9 8 6 5 5 8 12 13 9 5 5 6 5 3 2 3 4 5 6 6
7 7 7 7 8 9 10 11 12 13 16 16 17 16 15 19 20 20 12 1 1 8 10 11 6 7 13 11 6 12 20 21 25 27 25 23 19 20 25 28 27 26 27 24 21 21 21 20 20 23 24 23 22 21 20 20 20 18 18 18 17 17 16 15 14 13 12 11 10 9 8 8 8 8 8 8 9 9 9 8 7 6 6 9 12 10 6 6 6 6 4 2 1 2 3 4 5
7 8 7 8 9 9 11 11 12 13 13 13 15 15 15 18 18 12 4 2 5 9 11 12 5 6 9 10 8 11 17 19 25 27 25 23 21 22 25 27 26 26 26 24 22 21 21 21 20 21 23 23 22 21 20 19 19 18 18 18 17 17 15 15 14 13 12 11 9 8 8 7 7 7 8 8 8 9 8 8 7 7 6 5 8 10 8 6 6 6 4 2 1 1 2 3 4
8 7 7 8 9 10 12 11 12 12 10 12 13 15 16 10 4 1 3 4 6 8 10 11 4 12 11 10 9 9 15 21 25 26 25 24 23 23 24 26 26 25 25 24 22 21 21 21 21 21 23 22 22 21 20 19 18 18 18 17 17 16 16 14 14 13 11 10 8 7 7 7 6 7 7 7 6 7 7 7 7 6 6 4 4 6 7 6 6 6 4 3 2 2 2 3 3
9 6 7 8 9 10 11 11 13 12 10 12 8 7 8 1 3 3 1 5 7 7 7 10 6 10 13 14 10 12 21 27 26 26 26 24 24 23 24 25 26 26 25 24 22 22 21 21 21 21 21 19 20 19 19 18 17 18 17 17 17 16 15 14 13 12 10 9 8 7 7 6 6 8 8 7 6 6 6 6 7 6 5 4 3 3 5 5 6 6 5 5 4 4 4 5 5
8 7 7 8 10 11 10 11 12 12 11 10 4 4 3 3 3 3 2 3 7 8 6 7 7 4 12 17 16 23 31 31 27 28 27 24 24 24 24 24 25 26 26 25 24 23 22 22 22 21 20 19 19 17 17 17 16 17 17 16 16 16 15 14 13 11 10 8 7 7 6 6 7 7 8 7 6 7 7 6 5 5 5 4 1 1 4 5 6 7 7 7 7 7 7 7 7
7 8 8 9 11 11 11 11 11 10 10 10 3 2 3 5 6 5 2 4 7 8 8 8 8 6 8 17 26 34 35 33 30 29 28 24 24 24 23 22 23 24 25 25 25 26 24 22 21 20 20 20 19 18 16 16 16 17 16 15 15 15 14 13 12 10 9 8 7 7 6 6 5 6 7 6 5 6 7 5 3 3 3 3 2 1 2 4 6 7 8 8 9 9 9 10 10
8 7 9 10 10 11 11 12 12 12 12 9 6 5 6 7 4 5 6 6 8 7 10 8 2 8 19 27 34 37 34 34 32 29 27 23 22 21 21 21 22 23 24 23 25 27 24 23 22 20 21 20 19 19 17 15 16 16 15 15 14 14 13 12 11 10 9 8 7 6 6 6 3 5 6 4 3 4 6 6 3 2 2 2 2 2 2 3 5 6 8 10 10 11 11 12 13
9 7 9 10 11 11 12 14 15 15 15 13 7 4 1 5 5 2 3 6 9 8 10 7 13 19 24 29 32 34 33 32 30 29 26 23 22 21 20 21 21 22 22 22 25 26 24 24 22 21 22 21 20 19 18 15 17 16 14 14 14 13 13 12 11 9 8 7 6 5 6 5 3 6 4 3 2 3 3 5 4 3 2 2 3 3 3 2 3 5 6 9 10 11 13 15 16
10 9 9 10 13 14 15 15 17 18 14 13 3 6 2 6 6 4 5 6 10 8 10 9 15 21 21 24 26 29 30 29 28 27 25 23 23 21 20 20 21 22 22 22 24 23 23 23 23 23 22 21 20 19 18 17 17 16 14 14 13 13 12 11 9 9 8 7 6 4 5 5 3 5 3 4 6 6 1 2 3 3 1 2 3 4 4 4 4 5 6 7 8 10 12 13 13
9 11 11 11 14 14 16 18 20 17 8 8 7 1 5 6 6 6 7 7 10 9 10 10 17 24 21 22 22 24 24 23 24 25 24 23 23 22 20 20 21 21 22 23 23 23 23 23 23 23 22 22 20 19 18 18 19 17 16 15 13 12 11 11 10 9 10 8 6 4 5 6 4 5 3 2 3 6 5 2 1 1 1 1 4 5 5 5 7 9 9 9 10 11 11 11 11
9 12 15 15 16 13 15 19 17 11 7 7 9 10 4 3 8 7 8 8 8 8 8 10 19 25 23 23 21 21 21 20 21 22 23 22 22 21 21 22 21 22 23 23 23 23 24 23 23 23 22 21 18 17 17 18 18 17 17 16 14 13 12 12 10 10 10 8 7 5 4 5 6 5 4 3 2 5 6 4 3 2 2 4 5 5 5 6 9 10 9 11 13 13 12 13 14
10 12 15 16 17 16 15 14 8 5 9 9 7 11 7 7 11 6 7 10 10 11 9 6 20 26 23 23 20 21 20 19 20 22 24 23 23 22 22 23 22 23 22 23 23 23 25 23 23 23 22 20 18 17 18 18 17 16 17 17 14 14 13 13 11 10 10 8 7 6 5 5 6 6 5 5 4 5 5 4 3 4 4 5 6 6 5 7 9 9 9 10 12 12 11 14 15
13 12 14 15 16 19 18 14 6 2 8 10 7 11 11 13 13 6 10 11 12 13 11 7 17 25 22 23 20 20 20 20 20 17 14 13 19 23 23 24 23 23 22 23 24 23 25 24 23 22 20 19 17 17 18 18 17 16 16 15 14 14 14 12 11 10 9 9 8 7 7 6 6 6 6 5 4 4 4 3 3 4 5 5 6 7 5 6 9 10 9 9 10 11 12 13 15
16 14 14 14 15 17 17 16 10 4 6 9 10 13 13 14 11 8 13 11 12 12 8 9 13 23 19 21 19 18 18 16 11 10 6 5 11 17 19 23 23 22 23 23 23 23 24 23 22 20 18 18 16 16 17 16 15 14 15 14 13 13 13 10 10 10 9 9 9 7 7 8 7 6 6 4 4 4 3 3 5 5 4 5 6 7 6 6 9 9 9 10 11 12 13 14 16
13 16 15 15 16 15 15 17 16 9 7 8 11 15 13 13 11 10 15 12 9 10 8 8 11 22 16 17 17 17 16 11 12 8 11 14 14 14 16 21 23 22 24 23 22 23 23 22 21 19 18 17 15 15 15 14 12 12 13 12 12 13 11 9 10 9 8 8 9 8 8 9 8 5 5 4 4 3 3 4 5 5 4 4 5 6 6 7 8 9 10 11 12 12 13 14 15
11 16 17 18 18 15 13 15 16 12 10 11 12 15 13 13 12 10 15 13 11 12 10 7 9 18 13 14 14 13 11 14 14 10 10 14 16 16 17 19 20 22 24 22 22 23 24 22 20 20 18 17 16 14 14 14 12 12 13 11 11 13 11 9 10 8 9 10 10 11 10 8 7 5 4 4 3 3 3 3 4 4 4 4 4 5 5 7 7 8 10 11 12 13 14 14 14
13 16 15 17 18 17 16 14 13 11 10 14 14 15 14 14 14 12 14 14 16 16 12 12 10 13 12 13 13 10 11 14 19 15 13 14 16 18 18 20 21 23 23 21 23 24 24 22 20 21 19 17 17 14 13 14 13 12 13 11 10 11 11 10 10 9 10 11 10 10 8 7 6 4 3 2 2 2 3 3 3 4 4 4 4 5 6 7 7 8 9 11 12 13 14 15 14
15 16 11 13 16 17 19 16 13 12 11 13 13 14 15 15 15 16 18 15 15 14 12 14 12 12 12 11 11 11 11 15 17 16 19 17 17 20 19 21 24 23 23 22 24 24 23 21 20 20 18 17 17 13 13 14 13 12 11 10 10 10 10 9 8 10 10 9 8 8 6 6 5 3 2 1 1 2 3 3 4 4 4 4 5 6 7 7 8 9 10 11 12 13 14 15 15
14 14 10 10 12 13 18 17 15 15 12 12 12 10 11 14 17 16 15 12 9 10 11 13 12 11 12 12 11 11 12 12 12 14 20 18 18 23 21 24 27 24 23 23 23 23 21 20 17 16 18 17 14 13 14 13 12 12 11 10 10 9 9 8 8 8 7 7 8 7 6 5 4 3 2 1 1 2 2 3 4 4 4 5 6 7 8 8 8 10 10 11 12 13 14 15 15
11 12 9 9 9 9 16 17 16 16 12 14 14 9 9 13 18 13 8 10 11 10 12 11 12 12 12 13 11 10 9 6 5 7 13 17 19 22 23 24 25 23 23 23 22 22 21 19 16 16 18 15 12 13 13 11 12 12 11 11 10 9 9 7 7 8 8 9 8 7 6 5 4 3 2 2 2 1 2 3 3 3 4 5 6 7 8 8 9 10 11 12 14 14 15 16 16
9 11 10 10 9 9 14 17 19 17 13 16 15 9 9 10 9 13 14 15 15 12 12 10 12 16 15 13 11 10 7 5 5 4 10 17 19 20 25 26 24 23 23 23 22 21 21 19 16 17 17 13 12 13 12 12 12 12 12 12 11 11 10 8 8 8 8 9 9 8 7 5 4 3 3 3 2 1 3 3 3 4 5 6 6 7 8 9 10 11 12 13 14 15 16 16 16
9 10 10 10 11 10 11 15 20 21 15 16 16 11 9 4 6 10 10 12 13 10 10 6 10 14 12 9 8 11 8 5 6 0 7 6 1 6 13 16 17 20 24 24 20 18 19 19 16 17 15 13 13 12 12 12 12 12 12 12 12 11 10 9 8 7 7 9 9 8 7 5 4 3 2 2 2 2 3 3 4 4 5 6 7 7 8 8 10 11 13 13 14 16 16 17 18
9 9 9 11 13 11 11 13 17 22 17 16 18 14 7 7 9 7 6 6 9 9 7 5 6 2 5 5 5 10 7 5 7 7 8 12 18 20 18 15 14 15 18 21 19 17 18 17 16 17 15 13 13 13 13 12 12 11 10 10 11 10 9 9 7 8 7 8 8 6 7 5 4 2 1 1 2 3 3 4 5 5 6 7 7 8 8 9 10 11 14 15 15 15 16 17 19
10 10 9 10 13 13 13 13 14 21 20 16 17 16 8 11 10 6 7 5 8 9 7 8 5 7 9 5 6 9 7 5 8 11 15 14 14 14 12 14 17 17 18 17 15 16 17 17 17 17 16 15 14 14 14 12 11 10 9 8 8 8 8 7 7 7 6 7 8 5 6 4 4 2 3 3 4 5 4 5 6 7 7 8 8 9 10 11 12 14 15 16 17 16 16 17 17
14 13 11 11 12 12 14 15 13 20 18 16 16 16 12 13 13 10 9 8 10 10 8 5 9 9 7 4 5 9 8 6 10 15 19 18 17 20 21 20 23 24 24 22 17 17 20 19 19 18 17 16 16 15 13 12 11 10 9 8 7 6 7 6 6 5 4 8 7 5 5 4 5 4 4 4 5 6 6 7 7 7 8 8 9 10 11 12 13 14 15 16 17 17 17 17 17
16 14 13 14 13 12 14 16 15 19 15 15 17 17 16 15 15 14 11 10 10 10 9 6 13 9 4 5 5 8 7 4 9 16 18 19 18 20 23 22 22 22 22 23 22 22 22 20 20 19 17 17 15 14 13 12 11 9 8 8 7 7 6 6 5 5 5 8 4 6 5 5 5 4 5 6 6 7 7 7 8 8 9 10 10 10 11 12 12 14 14 15 16 17 19 18 18
18 13 12 12 12 13 14 16 15 19 12 13 17 17 17 17 17 15 15 13 11 11 11 8 16 11 4 6 7 6 5 3 6 10 13 17 18 17 20 21 22 24 21 20 22 22 20 19 19 17 15 15 13 13 13 12 10 10 9 8 8 8 6 5 6 6 5 5 4 7 6 7 6 5 6 6 6 7 7 8 9 9 9 10 10 10 11 11 12 13 14 16 16 16 18 17 18
17 12 12 9 11 13 12 18 17 15 9 10 16 15 15 16 18 16 15 14 11 12 11 11 16 13 8 9 9 7 8 8 6 8 11 18 23 22 20 20 23 26 23 22 22 20 21 22 19 15 14 14 12 12 13 12 10 9 8 8 9 9 6 6 7 7 5 3 7 6 6 7 6 6 6 6 7 7 7 8 9 8 9 10 10 11 11 11 13 13 14 16 16 16 16 17 18
14 12 11 9 12 12 10 14 14 11 7 8 12 12 12 11 15 13 11 12 11 10 9 12 14 12 11 11 12 13 13 11 11 11 12 16 22 23 21 21 23 23 22 22 22 20 21 23 20 16 14 13 12 12 12 12 10 9 8 8 9 9 9 10 9 6 5 5 7 6 6 6 5 6 6 6 7 7 8 8 8 8 9 9 9 10 10 11 12 13 14 15 16 16 16 18 18
15 15 12 10 12 15 14 10 11 9 9 10 10 8 10 9 14 13 10 11 10 9 10 13 13 10 12 11 10 13 14 13 13 13 14 14 17 21 24 24 23 21 21 23 23 22 23 23 21 18 15 14 13 12 12 12 11 10 11 9 10 10 10 10 7 7 6 5 5 6 6 5 6 5 6 7 7 7 7 7 7 7 8 8 9 9 9 11 12 13 14 16 17 16 16 18 18
13 16 16 15 12 16 17 9 12 6 8 11 12 8 7 9 16 14 11 11 6 2 5 12 13 9 11 11 10 11 12 12 12 12 13 12 12 18 23 24 23 21 21 23 24 24 23 22 22 20 17 15 14 13 13 13 11 11 12 11 11 9 6 2 6 7 7 6 5 5 4 5 6 5 6 7 7 7 7 7 7 7 8 8 9 9 9 11 13 14 14 15 17 17 17 17 17
10 13 18 19 14 16 18 14 13 6 6 10 14 10 6 8 15 14 12 11 7 5 2 7 10 6 6 7 10 11 11 12 12 13 13 11 11 14 18 20 21 22 23 24 23 23 23 22 20 19 18 15 13 13 13 11 12 14 13 11 11 10 4 2 3 8 8 6 7 5 5 5 5 5 5 6 7 7 7 7 7 7 8 8 9 10 10 12 13 13 14 16 17 17 17 15 16
8 12 18 20 17 17 16 14 11 7 5 9 14 13 9 6 11 14 15 11 8 5 1 3 7 8 7 7 8 11 13 12 12 14 14 13 12 13 15 18 20 23 26 24 21 21 22 20 18 17 17 15 13 12 11 11 13 13 11 10 11 13 10 3 3 6 7 6 7 5 5 5 4 5 5 6 7 7 7 7 7 8 8 9 10 11 11 12 13 13 15 17 17 17 17 15 15
9 13 17 17 17 16 14 12 11 8 7 8 12 14 10 5 8 13 13 11 7 7 7 6 6 10 12 11 8 7 10 13 12 13 14 14 14 14 16 18 20 23 25 22 20 22 23 21 19 18 17 15 14 13 12 12 13 11 10 12 13 14 11 7 5 4 6 5 5 3 3 4 4 5 5 6 7 8 7 7 8 9 9 9 11 12 11 11 13 14 16 18 18 18 17 16 16
13 15 15 14 15 14 14 12 10 9 8 8 12 15 10 6 8 11 9 9 8 7 7 7 6 7 9 9 6 7 7 9 12 13 13 13 16 17 18 20 21 21 22 22 22 24 23 22 21 21 19 17 15 14 14 13 13 13 13 14 14 13 8 8 7 6 6 5 4 3 4 4 5 5 6 6 7 8 8 7 9 9 10 10 11 11 11 12 14 15 16 18 17 18 19 18 18
16 14 12 12 13 9 10 8 8 8 7 11 15 16 12 8 7 10 9 11 13 9 6 7 7 8 7 8 9 9 7 4 7 10 12 14 17 19 19 20 20 20 22 25 24 24 23 23 22 21 19 18 17 15 15 15 14 14 14 14 14 12 8 9 7 6 5 5 4 4 5 5 5 5 7 7 7 8 8 7 8 10 10 10 10 11 11 13 14 15 16 18 18 19 21 20 20
16 12 9 10 8 6 6 4 6 7 7 12 17 17 16 10 7 8 13 18 18 14 12 12 13 13 12 11 12 13 9 5 6 6 9 13 15 17 18 19 20 21 22 24 24 22 23 24 23 20 18 19 20 18 18 17 15 14 13 13 14 11 9 7 6 6 4 4 4 4 8 8 6 6 7 8 7 7 8 8 8 9 10 10 10 11 12 13 14 16 17 17 18 20 21 21 21
15 11 9 10 8 6 6 6 7 8 7 10 14 15 13 8 5 8 10 20 21 17 18 20 19 17 16 15 13 12 11 9 9 8 8 10 11 14 18 19 20 20 20 22 22 21 21 22 22 21 21 22 23 22 20 18 16 14 12 12 13 10 8 7 7 5 4 4 4 6 10 9 7 8 8 8 7 7 8 8 9 9 10 11 11 11 13 15 15 16 17 18 19 19 20 21 20
15 11 10 10 9 7 8 7 7 7 7 11 13 12 9 6 5 11 11 14 18 18 20 23 23 20 17 15 13 11 11 10 9 9 10 10 11 15 18 18 17 17 19 21 22 22 22 21 20 21 23 25 25 23 19 18 16 13 12 11 11 10 9 8 7 5 5 7 7 7 9 8 7 9 9 7 6 7 8 8 9 10 10 11 12 12 14 15 15 16 18 19 19 18 19 20 19
14 11 10 10 8 7 7 7 7 7 7 10 12 9 7 7 4 7 10 10 15 15 18 20 19 18 16 15 14 13 12 11 9 11 12 11 13 17 19 17 16 17 20 21 21 22 23 22 21 21 24 26 25 22 20 18 16 13 12 12 11 10 10 9 7 7 8 9 8 7 6 8 9 8 7 6 6 7 8 9 10 10 11 12 13 14 15 15 16 17 18 18 18 17 19 20 19
11 10 9 9 9 8 5 6 6 3 4 7 7 5 5 6 2 1 5 8 16 14 17 20 16 16 15 14 14 14 13 13 11 11 12 13 16 19 19 18 18 19 20 20 20 21 21 22 23 21 23 24 23 22 20 18 16 14 13 13 12 11 9 9 7 7 9 10 9 7 6 7 9 8 7 6 6 7 8 9 11 12 13 13 13 14 15 15 16 16 17 18 19 18 18 19 19
9 10 11 10 11 10 5 6 5 1 4 6 5 6 6 7 5 5 5 4 13 12 17 20 18 18 16 12 12 12 12 13 12 11 12 14 16 17 17 17 19 19 19 19 19 20 21 25 26 23 21 22 22 22 20 17 15 14 13 12 12 12 10 9 9 9 9 9 9 9 8 7 8 8 7 7 7 8 10 10 11 12 13 14 14 14 14 15 15 16 18 18 18 18 17 18 19
8 9 11 10 11 11 6 6 6 4 6 5 7 11 9 7 6 8 7 3 6 8 14 20 19 19 17 13 12 12 11 13 13 13 13 13 14 14 15 17 20 20 19 20 21 22 23 25 27 24 20 21 21 21 20 17 16 15 13 13 12 12 11 10 11 10 10 10 9 9 9 9 8 8 8 8 8 9 10 10 11 12 13 14 14 14 14 15 16 17 18 18 17 17 17 18 19
12 10 10 8 8 9 7 5 6 7 6 5 9 13 10 8 7 9 11 8 7 10 14 18 19 18 15 14 15 14 13 12 12 13 13 12 13 16 16 16 20 21 20 21 23 24 24 24 24 23 21 21 21 20 19 17 16 15 13 12 12 12 12 12 12 11 11 11 10 10 10 10 10 9 8 8 8 9 10 11 11 12 13 14 14 15 16 16 17 17 17 17 17 16 17 18 19
15 12 11 9 6 6 7 6 5 7 6 5 9 10 8 9 7 8 11 11 10 12 15 16 18 17 14 14 15 14 13 11 10 12 14 13 15 19 19 18 20 21 20 21 22 24 25 23 23 23 22 21 19 19 18 16 15 14 13 12 12 12 12 13 13 12 12 12 11 11 11 11 11 9 7 7 9 10 10 10 12 13 14 15 15 16 16 16 17 16 15 15 15 16 17 17 18
12 10 11 10 7 6 7 7 7 7 6 6 7 7 7 6 4 6 10 12 11 12 14 15 16 17 16 15 14 13 12 12 11 11 13 14 16 20 19 17 18 18 19 22 23 24 24 23 22 22 21 20 19 18 17 15 14 14 14 13 13 13 13 12 12 12 12 13 12 12 12 12 11 10 8 9 10 9 9 11 13 13 14 15 16 16 16 15 15 15 15 15 15 16 17 17 18
11 8 9 11 9 8 8 8 8 7 6 6 6 6 6 6 5 7 9 11 12 12 13 14 15 17 17 15 14 13 12 12 12 12 12 13 16 20 19 18 18 17 18 22 24 24 24 23 22 21 19 19 18 17 16 15 15 15 14 14 13 14 13 12 12 13 13 13 13 13 13 12 11 10 9 10 11 11 11 12 13 13 14 14 15 15 16 15 15 14 14 15 15 16 16 16 18
Wind_Direction
304 313 314 303 296 295 290 289 281 271 261 257 260 261 259 260 260 266 267 294 308 172 124 91 43 2 354 345 60 76 42 37 54 93 93 128 138 131 119 116 120 127 129 132 133 131 133 134 135 133 131 134 135 137 139 138 137 137 138 137 136 131 127 126 124 122 120 119 116 112 110 111 111 110 107 103 101 95 91 91 89 88 87 86 83 88 93 89 84 83 85 79 72 65 60 59 61
300 304 302 287 277 282 291 301 286 278 272 269 267 268 274 274 266 265 265 264 276 109 100 78 31 336 9 48 84 81 52 50 72 85 101 116 113 112 116 119 123 129 130 130 130 132 135 137 138 135 134 134 133 137 139 138 136 137 139 137 134 130 129 127 125 124 122 120 117 115 116 117 117 115 113 111 110 107 99 92 89 89 87 85 85 90 95 92 85 85 86 78 67 58 50 48 48
294 295 296 288 267 255 273 272 264 271 268 269 268 269 273 269 265 263 270 291 71 86 83 356 10 348 306 20 73 71 74 72 83 99 113 108 104 119 125 122 125 130 127 127 132 135 137 140 140 138 138 137 135 137 137 137 136 137 137 135 133 132 132 128 126 126 123 121 120 120 120 120 119 118 120 122 123 122 119 113 107 102 94 91 93 84 87 91 84 87 86 73 61 53 46 43 45
290 286 284 288 278 257 267 261 256 265 260 264 267 267 268 267 264 250 272 30 59 70 58 333 346 24 342 47 82 78 93 90 92 108 123 118 123 131 128 123 123 125 125 129 135 139 141 142 142 141 142 141 139 138 138 137 137 137 135 135 135 135 133 129 128 127 124 123 123 122 121 122 122 125 129 133 136 136 134 133 131 125 117 110 110 87 76 83 78 84 84 68 57 50 42 41 44
285 276 266 265 279 277 266 263 260 257 254 261 262 265 265 270 275 261 17 56 53 20 7 7 326 330 53 72 97 99 106 109 106 115 119 118 127 130 128 125 124 127 127 130 138 143 143 144 145 143 143 143 143 142 141 138 138 140 138 138 137 137 133 130 130 129 127 125 125 123 122 124 123 126 128 137 144 150 153 149 144 138 134 127 123 103 79 81 79 77 80 65 56 47 39 40 43
267 262 253 244 261 290 270 258 256 255 253 258 260 265 265 267 271 267 326 47 81 337 315 24 311 317 66 72 66 90 118 119 113 122 122 119 128 132 130 130 132 132 127 131 141 145 145 147 146 144 144 142 142 142 141 139 141 143 140 139 140 139 135 133 133 131 130 127 126 121 118 119 120 115 110 113 116 127 149 158 155 146 143 142 134 112 99 108 100 74 77 66 56 47 40 39 45
255 255 241 227 243 263 252 251 254 259 256 258 263 267 269 274 276 280 307 322 269 252 260 19 289 307 81 88 69 91 120 124 130 132 127 125 130 133 136 140 134 127 125 130 138 145 148 149 147 145 143 141 141 141 142 142 144 145 140 140 142 140 137 135 134 134 132 128 123 117 115 116 115 108 100 95 93 98 116 145 159 157 151 152 144 118 137 164 112 89 85 67 55 46 42 44 50
246 253 251 232 232 228 235 246 249 253 255 259 264 268 270 272 275 279 285 279 283 338 284 218 215 233 106 107 96 98 97 104 121 126 125 125 129 138 146 136 123 122 124 129 140 147 149 149 147 144 142 142 141 141 143 144 145 143 141 142 144 141 138 137 134 134 132 128 121 114 113 112 109 104 103 101 100 101 100 115 140 160 162 157 151 134 176 189 132 120 96 68 59 45 42 45 50
233 233 250 251 240 237 238 243 247 248 250 252 258 262 266 269 274 278 275 267 254 324 282 280 270 231 124 112 111 111 92 99 110 118 125 128 133 149 150 130 122 124 125 134 145 145 147 149 146 144 144 143 141 140 142 143 144 142 143 145 145 143 139 138 136 134 131 126 119 112 110 106 107 104 110 113 111 114 108 104 114 150 162 164 161 150 186 191 171 145 116 79 62 48 43 44 48
220 220 232 245 239 246 244 245 250 250 250 248 250 253 258 260 263 268 269 283 1 270 263 274 283 211 119 111 111 119 112 113 115 118 128 135 144 156 144 130 129 128 130 137 141 141 146 149 146 145 145 142 141 141 142 142 143 143 146 147 147 145 141 140 137 134 130 124 116 109 106 104 106 104 108 109 104 104 105 109 107 137 159 171 174 172 178 182 179 162 142 106 64 52 44 43 46
217 212 224 241 237 244 245 250 252 253 255 252 251 248 255 258 257 259 255 164 55 277 277 280 267 140 112 103 104 118 120 120 121 124 134 144 154 151 130 128 134 134 134 134 136 142 144 145 145 145 143 141 143 143 144 145 145 147 148 149 149 147 144 143 138 135 131 123 118 108 104 102 101 101 101 100 94 92 90 92 99 113 153 174 185 194 185 175 177 168 160 129 74 52 41 41 41
228 211 213 234 237 241 245 250 253 256 256 255 255 246 244 249 248 253 260 85 239 268 268 267 257 137 113 103 115 126 124 124 125 131 141 147 154 145 127 127 133 133 135 135 138 142 141 144 144 143 144 144 146 145 147 148 148 150 150 151 150 148 147 144 141 137 132 126 121 112 106 100 93 91 90 91 87 83 83 84 85 89 125 170 188 200 197 184 178 173 173 158 93 49 31 31 28
233 225 218 228 237 246 249 251 255 257 256 256 259 258 251 246 244 250 296 346 256 264 253 251 242 136 122 113 129 133 127 132 133 138 145 147 153 147 132 129 131 131 134 137 139 142 142 142 142 146 149 148 148 148 149 150 151 152 152 154 151 150 150 147 144 138 135 131 124 118 110 98 87 80 78 79 79 77 75 79 81 85 96 139 181 197 204 196 183 184 190 191 204 17 4 12 11
230 236 237 237 236 241 250 253 258 258 257 255 254 263 264 257 257 348 344 279 250 252 258 259 199 113 123 130 138 148 138 142 142 142 148 150 154 154 141 133 135 135 136 138 141 143 142 141 143 149 152 151 151 152 153 153 154 154 153 154 153 153 152 149 146 141 138 134 129 125 117 104 89 81 75 67 66 67 63 66 72 81 91 108 154 191 209 205 194 200 213 230 254 290 308 328 336
228 241 246 250 245 239 243 245 253 258 261 264 266 280 282 355 71 66 254 266 277 263 264 253 207 120 146 158 154 158 145 146 149 146 149 153 156 157 146 140 141 142 142 143 145 144 142 142 144 148 151 152 154 153 154 157 158 157 155 155 155 154 154 153 149 143 139 138 138 135 129 116 98 92 76 64 60 45 43 54 55 60 73 92 128 173 204 209 213 220 235 248 262 277 284 294 303
227 245 244 245 249 244 241 242 248 251 253 266 310 32 29 82 162 212 229 234 269 275 281 252 237 217 178 166 156 150 145 148 152 148 149 154 156 154 148 147 148 147 148 150 150 146 144 144 144 148 150 153 154 153 156 160 161 158 158 157 157 157 157 155 150 144 140 144 145 144 140 116 97 94 71 58 57 33 27 42 40 39 52 59 83 169 203 209 220 230 242 255 266 272 279 284 288
219 237 243 240 242 242 243 244 247 252 251 248 234 119 207 219 186 165 198 230 254 268 271 254 255 253 155 139 140 141 145 148 151 150 149 155 157 155 152 154 154 148 153 156 152 146 146 147 147 149 151 153 154 155 158 162 164 160 160 160 160 160 160 158 152 145 146 150 146 149 152 128 99 92 75 43 36 36 30 24 15 8 35 47 35 16 243 232 234 238 246 256 262 268 275 278 281
217 224 235 240 239 238 243 246 252 264 270 249 196 184 227 238 215 155 175 210 235 255 263 251 101 90 104 117 132 138 146 147 151 154 152 158 161 160 157 161 160 151 157 157 147 146 149 149 150 151 153 153 153 157 159 164 164 158 161 162 162 163 164 162 156 153 154 154 149 154 152 146 133 103 88 48 26 36 39 23 16 4 9 32 19 10 321 275 263 260 263 267 269 274 276 277 281
221 227 229 236 241 244 246 249 257 258 262 255 204 142 316 267 270 251 200 211 221 222 245 231 102 98 109 121 133 139 147 148 154 159 156 161 164 164 161 165 161 154 161 152 143 148 151 152 152 154 154 153 153 155 159 163 160 157 162 163 166 170 169 167 163 160 161 164 161 156 139 141 166 138 119 140 213 290 32 36 39 45 30 40 12 350 326 311 296 290 286 283 281 282 281 281 284
218 230 233 234 238 248 253 249 252 252 256 271 289 84 131 255 270 272 257 248 246 226 226 218 123 117 124 129 136 141 148 152 158 162 159 164 164 164 164 165 161 157 160 149 146 152 154 155 153 153 153 151 152 155 159 159 157 160 164 167 172 174 173 172 171 166 169 182 171 156 152 154 183 174 180 185 209 245 222 41 36 40 27 56 9 337 313 308 296 293 292 287 284 285 285 284 285
210 224 236 240 237 239 250 250 252 257 267 286 309 13 182 234 253 246 252 247 253 236 220 214 140 131 135 136 142 144 150 155 162 166 164 165 163 163 165 164 161 157 154 149 152 155 155 154 150 152 152 152 154 155 159 160 161 163 167 174 174 174 177 172 176 174 175 190 176 171 184 175 205 218 231 227 228 232 224 285 315 11 345 292 324 324 310 301 294 294 293 289 292 292 288 284 282
214 225 233 242 248 240 239 244 252 263 265 252 265 269 240 237 244 232 248 249 255 247 230 207 148 137 143 143 145 149 158 163 166 172 169 167 163 161 161 160 161 155 151 152 153 154 155 153 149 151 154 156 155 156 162 164 167 168 170 175 169 171 176 167 174 178 176 186 181 193 196 171 194 205 218 236 236 218 218 255 255 254 284 251 273 291 281 274 281 287 279 278 288 292 286 278 277
222 231 232 235 247 253 253 253 263 269 261 256 249 266 277 268 256 233 240 251 265 273 282 227 148 142 148 145 150 158 164 168 171 178 173 166 159 159 159 159 161 155 152 153 152 153 154 152 149 152 158 158 156 162 164 163 169 171 172 172 167 171 173 170 178 180 178 178 183 210 206 180 195 200 207 212 203 210 219 233 247 265 273 261 266 278 277 267 276 282 268 268 278 284 284 278 279
226 233 235 235 237 247 260 267 274 214 249 268 265 264 258 252 256 245 244 246 257 268 290 271 148 143 149 146 156 160 165 179 177 171 164 158 157 159 160 160 161 157 153 151 151 152 151 152 150 156 161 156 160 165 161 164 172 172 171 172 172 173 173 177 178 174 174 178 191 206 197 193 204 207 211 219 214 221 239 251 267 275 271 268 272 284 287 267 278 291 285 278 277 280 283 281 282
225 234 239 240 238 238 249 258 256 209 223 250 254 260 252 251 257 251 250 237 240 242 254 265 151 138 146 147 155 162 172 179 146 109 121 173 167 163 163 161 161 156 149 148 149 149 150 152 152 159 161 155 163 159 158 171 174 168 167 171 175 172 173 176 169 168 174 187 196 189 191 204 203 203 213 239 248 231 243 258 270 277 276 278 277 286 291 277 283 292 288 282 282 284 283 283 286
217 230 239 242 245 240 237 244 243 225 221 231 237 249 246 250 254 249 253 245 252 234 211 251 151 136 144 147 156 171 169 136 98 116 174 183 176 175 175 165 160 153 147 147 148 148 150 151 152 159 158 154 160 155 160 173 167 164 165 169 173 166 170 175 166 173 185 188 191 192 207 211 199 199 211 230 250 248 257 263 272 281 285 287 280 285 295 291 287 286 285 285 286 285 283 284 287
223 227 232 235 246 249 241 240 239 228 227 234 239 248 242 239 239 236 245 236 249 243 194 204 145 131 144 149 162 172 137 112 124 162 192 186 178 181 179 164 154 149 147 147 146 147 148 148 150 157 157 153 159 162 165 167 162 164 166 171 172 165 173 176 166 176 188 185 191 199 204 203 198 205 212 228 249 257 271 277 287 293 291 290 287 287 290 287 285 288 289 288 288 287 286 287 287
240 238 234 229 238 249 249 240 237 237 233 232 237 250 246 235 233 231 239 227 227 229 188 187 167 139 154 158 165 150 111 138 156 167 195 195 180 181 178 159 148 147 148 147 144 147 148 146 151 157 158 153 158 168 162 158 161 165 167 170 169 169 174 168 168 189 195 190 194 193 190 194 203 218 219 226 268 286 292 294 295 300 299 295 290 287 288 289 294 298 297 297 296 296 295 294 292
243 244 241 232 234 240 244 236 226 230 233 228 226 241 244 235 234 228 234 235 220 208 191 195 179 156 165 165 169 145 132 168 168 170 189 194 179 174 172 154 148 150 151 147 142 145 146 146 156 160 154 152 159 163 153 154 161 164 165 164 166 171 169 164 176 198 200 192 188 186 191 199 201 220 231 205 284 294 297 308 310 308 305 296 297 303 308 311 312 308 307 307 305 303 302 300 298
244 242 239 238 239 233 233 231 223 224 228 225 221 234 238 231 235 232 227 223 195 185 206 202 169 166 178 175 176 151 146 170 176 178 180 189 185 171 167 155 152 152 149 145 139 140 141 146 157 151 145 156 163 154 152 159 160 160 159 159 164 165 165 172 185 196 199 195 191 187 191 196 194 202 222 216 222 270 289 311 317 316 306 301 312 317 317 318 317 313 313 313 311 311 308 306 304
237 236 236 236 244 236 225 219 216 223 220 216 225 238 238 236 228 209 165 170 182 194 209 201 177 185 188 179 172 141 128 141 171 187 171 184 192 173 160 152 152 149 142 140 137 138 143 149 150 139 145 161 157 147 154 159 155 157 156 154 158 158 162 181 196 197 199 203 200 190 186 183 187 192 209 236 220 245 292 310 314 310 304 311 322 318 316 321 321 320 320 318 316 315 311 309 308
224 224 229 224 233 245 229 212 207 217 214 208 222 233 237 253 216 168 148 164 183 194 195 200 207 200 185 175 161 128 124 132 136 200 205 201 199 172 152 150 153 144 136 135 138 144 145 146 142 139 150 157 148 149 154 156 155 158 158 153 158 165 166 178 201 207 208 218 207 184 182 176 178 191 200 236 243 264 298 312 320 318 318 325 325 322 327 329 328 326 326 326 322 319 315 313 313
217 217 227 222 222 235 238 218 202 207 213 207 213 232 235 212 136 151 156 167 175 175 168 184 236 213 177 161 140 117 125 131 106 279 258 243 244 91 114 132 140 134 133 134 139 143 137 137 137 140 150 151 149 152 154 158 159 162 164 160 165 172 170 170 195 219 219 232 221 178 170 170 171 186 188 250 291 322 326 331 336 336 337 334 332 337 342 337 335 336 334 334 330 325 321 318 318
211 210 225 230 226 225 237 230 197 194 209 210 206 225 229 136 128 148 143 162 178 163 149 172 239 270 72 53 69 86 83 89 85 45 27 31 32 35 44 62 81 102 120 128 134 135 131 133 134 139 148 149 150 157 162 163 159 162 165 166 169 172 172 166 190 219 208 230 236 177 160 162 156 161 112 354 344 2 355 353 354 354 353 345 344 349 347 345 345 344 340 336 335 330 325 321 320
210 207 213 229 235 226 231 236 187 180 204 214 206 211 192 136 137 155 145 171 190 167 176 189 162 67 64 50 62 87 83 92 109 89 83 77 66 74 85 92 105 115 118 126 134 130 132 138 138 143 149 150 155 165 169 160 157 163 156 157 160 162 173 167 186 207 190 234 242 168 146 146 123 89 56 26 13 19 12 8 4 2 0 351 351 356 350 348 347 345 341 337 336 333 327 324 323
213 212 211 217 234 228 231 238 184 173 200 212 210 208 189 158 154 164 158 181 197 181 194 174 104 78 87 105 105 125 128 116 124 118 118 131 137 139 143 138 138 140 137 139 141 140 144 145 144 147 150 153 157 162 165 156 152 156 152 150 148 160 173 168 187 185 178 239 234 141 123 111 89 64 49 34 21 22 16 12 9 2 360 355 356 358 351 347 344 342 340 339 338 334 332 331 330
227 217 216 214 231 230 224 236 195 173 196 212 212 213 199 176 162 167 165 179 195 185 194 150 98 88 94 121 133 129 122 124 138 135 133 137 143 148 146 142 141 138 136 140 149 155 150 143 143 146 147 151 153 155 158 152 142 148 161 158 154 163 160 154 158 138 177 231 194 110 96 80 71 53 41 32 24 19 14 11 8 2 357 357 357 355 350 346 343 342 342 343 341 336 334 332 334
244 231 226 210 226 236 218 231 209 174 188 214 211 218 212 186 168 167 165 175 191 191 197 145 109 115 117 114 118 108 118 162 151 142 137 130 134 146 147 145 140 132 132 143 155 156 146 142 143 140 142 143 146 155 160 156 147 155 166 161 150 143 134 137 123 123 191 220 111 92 78 68 55 48 40 27 24 15 11 8 4 3 358 357 359 354 350 347 347 348 347 347 345 339 333 331 341
245 241 240 214 217 237 221 226 217 176 178 217 202 215 232 197 169 166 168 174 188 195 191 141 126 138 139 134 138 144 171 182 165 148 139 136 143 152 149 143 140 138 143 152 154 150 147 149 145 138 143 144 145 155 161 160 157 159 161 156 145 134 135 136 123 142 187 123 87 74 63 66 51 48 39 23 26 16 10 6 1 3 0 0 1 356 352 351 351 351 350 347 343 341 335 332 340
239 240 242 227 213 223 228 219 202 162 171 228 209 204 238 209 154 156 178 176 178 192 180 137 136 152 151 155 152 154 175 179 166 157 149 148 153 155 147 140 141 143 147 152 151 149 151 152 146 142 151 157 154 151 155 160 162 155 147 145 139 137 139 126 123 157 158 93 81 70 61 59 44 44 34 22 22 17 15 10 4 3 360 0 359 354 352 350 349 348 348 345 345 347 341 332 335
229 236 239 237 212 212 234 214 163 157 184 224 238 214 232 211 150 154 184 176 170 185 176 134 126 155 164 166 159 157 170 172 164 161 160 163 160 153 147 143 144 145 146 149 152 152 151 150 145 144 151 159 157 153 152 158 161 153 144 140 132 129 125 124 156 178 139 98 85 81 72 50 33 37 34 25 19 16 19 14 7 1 354 356 355 350 347 347 348 348 348 348 350 352 343 333 335
222 228 234 241 225 215 226 183 137 178 205 207 233 236 231 187 154 154 163 159 141 113 172 140 128 164 177 173 175 167 166 167 166 164 165 172 161 146 142 141 142 143 145 150 157 158 149 144 145 147 149 150 155 155 148 151 155 149 145 133 116 104 80 121 192 161 122 111 98 85 83 56 31 29 29 27 25 19 17 11 2 355 352 354 351 349 351 352 354 352 352 352 350 349 346 339 338
219 214 227 242 249 236 220 174 148 190 224 206 216 231 238 179 157 150 143 140 116 56 40 123 126 167 196 184 183 173 170 170 164 161 166 172 156 135 132 137 141 143 145 150 159 160 149 142 142 144 144 142 146 148 141 145 146 142 144 135 123 115 88 296 191 125 116 113 98 81 74 57 32 33 33 33 31 21 15 8 359 357 356 356 356 360 4 3 359 355 355 354 351 351 353 347 340
216 200 219 237 248 251 237 208 191 194 217 223 214 217 241 212 158 145 140 132 124 120 99 111 136 170 204 225 209 181 172 167 162 162 165 165 153 133 126 135 143 144 145 149 154 155 146 140 137 139 143 141 139 142 139 141 141 142 150 143 131 125 128 214 227 120 117 105 93 81 59 40 35 48 40 33 30 22 18 11 8 8 5 5 6 9 11 7 3 358 356 356 356 358 359 354 348
219 205 211 227 239 253 264 248 226 209 215 234 213 207 232 234 145 140 143 137 143 168 171 180 177 170 187 215 227 210 178 160 160 165 162 158 150 136 128 135 144 145 147 147 145 144 141 139 140 139 139 136 132 135 136 138 142 145 145 131 119 115 129 199 218 133 120 107 89 74 59 52 67 63 45 37 30 25 25 17 18 17 15 16 12 13 13 7 5 1 356 356 359 2 4 3 1
220 217 205 218 232 246 269 255 217 210 223 239 220 201 216 234 157 147 145 146 168 189 172 172 183 179 182 187 208 248 223 163 159 162 153 149 147 139 131 135 142 146 146 143 141 142 140 141 144 138 132 131 131 135 139 141 143 138 131 125 117 115 140 200 188 131 120 117 99 98 105 89 76 61 52 53 38 28 27 23 24 22 23 25 20 18 14 6 5 1 358 1 6 9 11 13 13
217 224 202 207 221 234 270 258 202 207 222 236 232 205 200 233 199 166 161 165 171 169 169 173 181 194 188 177 191 215 225 170 147 153 142 138 138 131 130 138 145 146 143 142 144 145 142 141 141 136 131 134 138 141 141 140 137 127 123 123 121 129 169 198 166 126 121 130 129 144 134 103 77 65 58 60 47 31 31 30 29 28 28 29 25 21 14 9 6 3 6 11 14 18 19 20 20
212 225 205 198 202 214 261 250 204 223 221 224 232 215 201 211 223 193 166 165 166 159 171 182 183 190 187 184 186 180 175 149 128 139 137 135 135 132 138 147 148 146 144 144 147 147 144 141 139 135 134 137 139 136 132 130 125 116 115 118 121 137 168 169 134 125 144 150 148 136 119 104 88 77 60 53 44 30 30 32 33 33 31 29 27 25 20 14 9 11 18 19 19 22 21 22 22
210 220 209 195 178 189 221 213 213 235 239 231 229 224 221 210 212 234 187 164 168 168 170 176 178 182 181 176 169 156 155 150 146 150 144 142 146 144 147 150 150 150 148 147 148 146 143 140 137 135 137 139 135 129 125 123 119 116 118 119 122 130 138 133 133 148 151 129 110 87 86 88 83 72 61 50 40 33 35 34 36 38 33 31 32 31 27 20 18 24 26 25 24 24 23 23 23
206 208 210 202 178 184 206 202 210 225 239 250 238 221 238 263 223 230 223 168 167 174 168 170 173 170 170 166 152 145 152 154 154 154 148 152 157 150 149 153 154 152 149 147 145 142 139 137 136 134 137 139 132 128 127 123 119 120 119 117 121 124 124 129 135 130 106 94 96 85 72 78 84 73 64 54 44 45 46 42 42 41 37 37 37 34 29 26 30 33 30 27 26 25 25 24 23
203 200 212 214 192 189 200 204 211 216 222 240 244 218 209 262 246 215 228 174 156 171 164 161 165 160 158 156 148 151 157 158 161 158 152 154 156 152 153 155 151 147 149 147 143 142 140 140 140 137 139 138 131 128 128 123 120 119 115 115 122 128 129 132 121 101 93 90 99 104 82 78 86 82 71 64 60 58 56 51 47 44 43 46 43 39 35 34 37 37 33 30 27 27 27 24 22
199 188 204 215 207 194 187 212 212 217 238 219 233 236 191 220 212 57 267 172 144 161 165 156 157 155 152 150 151 157 158 158 157 154 153 155 154 152 151 152 146 144 149 147 143 144 141 142 143 138 137 135 127 125 124 119 116 115 116 120 127 132 132 131 126 112 104 98 101 115 107 86 86 90 86 77 69 64 63 58 51 49 50 50 46 42 41 40 39 37 35 33 31 30 29 24 23
191 187 202 208 216 212 177 205 207 136 264 211 197 234 216 210 192 80 14 134 144 167 170 156 151 151 150 150 155 155 152 155 151 148 156 153 147 142 141 145 144 144 150 146 144 147 145 143 141 136 135 133 125 123 121 119 119 116 118 124 129 132 130 127 128 122 113 110 110 113 112 101 95 96 92 81 72 67 67 66 61 60 57 52 48 44 43 44 42 39 38 37 34 32 30 27 25
193 189 202 202 217 228 198 194 204 198 236 219 204 221 215 223 209 118 92 137 153 157 156 150 149 149 147 149 156 154 148 151 148 150 158 147 137 138 139 145 146 147 151 148 146 147 145 142 138 133 132 130 124 123 122 122 122 120 122 126 126 129 132 131 129 128 126 123 120 116 111 106 104 103 95 87 85 79 74 73 71 68 61 54 50 45 45 48 47 44 41 38 36 35 34 30 26
210 193 197 207 212 218 207 195 200 203 215 220 222 222 211 223 215 145 148 176 157 133 139 149 152 149 148 147 152 155 151 150 150 154 158 147 141 146 147 145 144 147 153 153 148 144 140 138 137 133 131 128 124 123 122 121 123 126 128 129 127 129 132 132 130 131 131 126 122 121 117 113 108 106 107 105 98 87 77 71 69 68 63 58 53 48 48 50 48 46 43 38 36 36 36 33 29
212 199 195 218 221 206 209 201 196 205 206 213 226 223 212 222 215 167 170 182 174 152 142 152 156 152 153 150 147 154 154 148 151 157 157 152 148 149 149 148 147 151 154 151 146 142 138 137 135 132 128 124 121 122 122 120 125 133 135 133 132 133 132 131 131 127 125 124 124 122 118 114 109 106 110 107 96 85 78 72 67 66 65 61 58 54 53 52 49 49 46 41 37 38 39 37 32
204 202 191 205 214 205 212 208 203 208 203 209 223 225 220 219 225 217 196 183 183 172 153 157 162 154 153 150 145 154 157 148 150 156 156 155 147 141 146 155 155 154 152 148 145 142 138 135 131 128 124 122 122 123 123 125 132 138 138 134 132 133 131 132 134 131 127 127 126 122 118 114 111 109 104 96 92 85 82 78 68 63 65 64 62 59 56 54 52 53 51 44 40 41 41 39 35
196 212 198 198 202 201 208 208 209 207 202 210 219 231 228 184 183 237 217 177 182 193 178 162 155 150 151 153 153 157 157 150 150 151 152 155 142 133 147 165 166 165 160 150 144 139 135 133 131 128 126 125 126 127 128 136 141 141 139 138 136 134 133 132 134 135 133 130 126 122 118 115 116 116 107 97 89 80 77 79 73 68 69 68 67 63 58 53 48 49 51 46 44 44 42 43 42
Height
770 771 769 770 767 767 764 761 780 774 771 785 774 768 756 736 733 733 729 724 727 721 715 722 723 726 735 741 747 754 758 761 770 781 789 776 767 772 771 772 774 778 782 784 786 787 787 788 789 790 791 792 794 796 797 799 801 803 804 805 806 807 808 809 809 810 811 811 812 812 812 812 812 813 813 814 814 815 816 816 817 817 817 818 818 818 818 818 819 819 819 819 819 819 819 819 819
771 771 769 770 766 770 768 762 788 787 780 789 771 763 750 732 734 735 728 722 724 718 713 720 723 726 728 732 737 751 762 759 759 766 770 766 769 773 773 775 776 779 782 784 787 787 788 789 790 791 792 793 795 797 798 799 801 803 805 806 807 808 809 810 810 811 812 812 813 813 813 813 813 814 814 815 815 816 816 817 818 818 818 818 819 819 819 819 820 820 820 820 820 820 820 820 820
771 771 769 770 765 765 767 769 790 794 792 793 774 756 744 740 739 731 720 714 715 714 719 721 724 727 728 737 744 757 769 762 757 761 764 767 771 775 777 777 777 780 782 785 788 788 788 790 791 792 793 794 795 797 798 800 802 804 805 807 807 808 809 810 811 812 812 813 813 814 814 814 814 814 815 815 816 816 817 817 818 818 819 819 819 819 820 820 820 820 820 821 821 821 820 820 820
771 771 770 769 768 768 772 780 785 789 793 789 777 756 742 742 733 722 715 713 713 716 724 726 728 725 729 748 750 757 768 763 759 760 764 768 771 775 777 778 779 781 782 785 788 788 789 790 791 793 794 795 796 798 799 801 803 804 806 807 808 809 810 811 812 813 813 814 814 815 815 815 815 815 816 816 816 816 817 817 818 819 819 820 820 820 821 821 821 821 821 821 821 821 821 821 820
771 771 770 768 775 774 775 782 780 783 785 778 773 756 741 737 726 718 714 715 716 720 724 728 736 726 730 745 745 758 766 761 759 758 763 768 771 775 777 779 781 782 784 786 788 789 789 791 792 793 794 795 796 798 800 801 803 805 806 808 809 809 810 811 812 813 814 815 815 815 815 816 816 816 816 816 816 817 817 818 818 819 819 820 820 821 821 822 822 822 822 822 822 822 822 821 821
770 770 767 767 770 769 777 786 782 780 771 762 765 752 738 731 724 717 713 714 714 720 721 728 737 733 744 747 742 755 757 757 758 756 761 767 772 775 778 780 781 783 784 786 789 789 790 791 792 793 794 796 797 799 800 802 804 805 807 808 809 810 810 811 813 814 814 815 816 816 816 816 816 816 816 816 816 817 817 817 818 819 820 821 821 822 822 822 822 822 823 823 823 822 822 822 822
770 770 767 770 770 769 785 790 782 778 762 752 754 746 736 729 722 717 717 720 717 718 720 726 730 738 758 754 750 754 749 753 754 756 760 764 771 775 779 781 782 782 784 787 789 790 791 792 792 794 794 796 797 799 801 803 804 806 807 809 810 810 811 812 813 814 815 816 816 817 817 817 816 816 816 816 817 817 817 817 818 819 820 821 821 822 822 822 823 823 823 823 823 823 823 822 822
769 771 765 773 779 776 785 784 776 771 759 748 744 739 734 728 722 721 724 725 723 722 723 726 725 744 761 752 760 758 749 753 753 760 761 764 771 775 780 780 781 783 785 787 789 791 792 793 793 794 795 797 798 800 802 803 805 806 808 809 810 811 811 812 813 814 815 817 817 817 817 817 817 817 817 817 817 817 817 817 818 819 820 821 821 822 822 823 823 823 823 823 823 823 823 823 823
766 770 768 774 781 778 779 778 770 762 754 747 741 736 731 726 723 723 725 720 718 726 730 726 724 744 758 753 763 759 752 755 755 761 762 767 772 775 780 780 782 783 786 787 789 792 792 794 794 795 796 797 799 801 803 804 805 806 808 809 811 812 812 813 813 815 816 817 817 818 818 818 817 817 817 817 817 817 818 818 818 819 820 821 821 821 822 822 823 823 823 824 824 824 824 823 823
765 767 771 776 779 781 778 773 765 756 748 741 736 731 727 723 722 723 725 723 720 730 729 722 726 740 754 759 763 758 757 757 755 762 765 770 773 776 780 779 782 783 786 787 790 792 793 795 794 796 797 798 800 801 803 804 806 807 808 809 811 812 813 813 814 815 816 817 818 818 818 818 818 817 818 817 818 818 818 818 818 819 820 821 821 821 822 822 823 823 823 824 824 824 824 824 823
768 765 767 778 781 783 778 771 762 752 742 734 730 724 721 719 720 721 720 724 726 732 728 725 732 739 753 762 762 759 759 759 758 763 767 772 774 778 779 779 782 783 786 787 790 793 793 795 795 797 797 799 801 802 804 805 806 807 809 810 811 812 813 814 814 815 816 818 818 819 819 819 819 818 818 818 818 818 818 818 818 819 820 820 821 821 822 822 822 823 823 823 824 824 824 824 824
771 767 767 780 781 776 771 767 760 750 740 735 730 718 713 713 718 719 718 725 729 734 731 730 730 733 757 767 763 760 760 764 762 764 769 773 776 778 779 780 783 784 786 788 791 793 794 795 796 798 798 800 801 803 804 805 807 807 809 810 811 813 814 815 815 816 816 818 818 819 819 819 819 819 819 818 818 819 819 819 819 819 820 820 821 822 822 822 822 823 823 823 824 824 824 824 824
768 764 767 777 772 768 765 762 755 749 743 734 727 713 706 709 713 714 718 727 732 739 733 724 720 728 758 766 761 763 764 767 764 766 770 773 776 778 780 781 784 785 786 788 791 793 794 795 796 798 799 800 802 803 805 806 807 808 810 810 811 813 814 815 815 816 817 818 819 819 820 820 820 819 819 819 819 819 819 820 819 820 820 821 821 821 822 822 823 823 823 823 824 824 824 824 824
762 758 762 769 763 763 761 759 753 750 746 729 718 710 704 706 709 711 721 733 734 734 726 715 715 733 757 763 765 765 765 768 766 768 770 774 777 778 781 782 784 785 787 789 791 793 794 795 797 798 800 801 803 804 806 806 808 808 810 811 812 813 814 815 815 816 817 818 819 820 820 820 820 820 820 820 820 820 820 820 820 820 820 821 821 821 822 822 823 823 823 823 824 824 824 824 824
757 754 759 765 762 760 756 756 752 751 744 723 714 710 709 708 710 718 725 735 733 721 717 714 714 733 751 757 764 760 759 765 766 768 770 774 776 778 781 782 784 785 787 789 791 793 793 795 796 798 800 802 803 804 806 807 808 809 810 811 812 813 814 815 816 817 817 818 819 820 821 821 821 821 821 821 821 821 821 821 821 821 821 821 821 821 822 822 823 823 823 823 824 824 824 824 824
751 753 760 766 765 761 754 749 748 750 740 722 715 712 719 717 713 724 722 725 731 718 719 722 714 723 734 738 746 748 753 760 764 767 769 774 776 778 780 781 784 784 787 788 790 792 793 795 796 799 800 801 803 804 806 807 808 809 810 812 813 814 815 816 816 817 818 819 819 820 821 821 821 821 821 821 821 821 821 821 821 821 821 821 821 822 822 822 823 823 823 823 823 823 823 824 823
748 756 765 767 764 761 752 747 746 744 731 720 718 717 728 726 715 719 717 719 730 726 724 723 715 715 721 726 734 742 750 756 762 765 767 772 774 776 779 780 782 784 786 787 788 790 792 794 796 798 800 802 803 804 806 807 808 810 811 812 813 814 815 816 817 818 818 819 820 821 821 822 822 821 822 822 822 822 822 822 822 822 822 822 822 822 822 822 822 823 823 823 823 823 823 823 823
751 760 767 766 761 754 745 742 737 731 725 721 720 719 726 728 720 717 719 726 729 731 728 722 721 719 719 727 735 742 750 755 760 763 765 769 772 774 776 778 779 782 784 786 787 789 791 794 795 798 799 801 803 804 806 807 809 810 812 813 814 815 816 817 817 818 819 819 821 821 822 822 822 822 822 822 822 822 822 822 822 822 822 822 822 822 822 822 822 823 823 823 823 823 822 822 822
753 758 764 762 754 744 735 733 729 725 725 720 716 718 724 728 723 718 726 734 730 734 735 726 730 732 729 733 739 745 749 754 758 760 762 765 768 771 773 775 777 779 782 784 786 788 791 793 795 797 799 801 802 804 806 807 809 810 812 813 814 815 816 817 818 819 819 820 821 822 822 822 823 824 824 824 823 823 823 823 822 822 822 821 821 821 822 822 822 822 822 822 822 822 822 821 821
750 754 760 755 745 739 731 727 725 719 717 717 717 720 728 728 722 722 729 735 731 734 734 729 738 741 738 739 740 746 750 754 758 759 760 762 766 768 771 772 774 777 780 782 785 788 790 792 794 796 798 800 802 804 806 808 809 811 812 813 814 815 816 817 818 819 820 821 821 822 823 823 825 824 824 824 823 823 823 823 822 822 822 822 822 822 822 822 822 821 821 821 821 821 820 820 820
747 749 754 746 737 739 731 724 720 713 713 720 723 725 731 727 723 725 730 737 737 730 724 725 734 738 739 741 741 746 750 753 756 757 757 759 763 766 769 771 774 776 779 781 784 787 789 791 794 796 798 800 802 804 806 808 809 811 812 813 814 815 817 818 819 820 820 821 822 823 823 824 825 824 824 824 823 823 823 823 822 822 822 822 822 822 821 821 821 821 821 821 821 820 820 819 819
745 744 744 739 734 735 727 719 716 713 715 723 728 731 729 725 725 726 729 739 736 722 715 715 724 730 733 738 740 745 749 750 753 754 755 757 760 764 767 771 773 776 779 781 784 786 789 791 793 796 798 800 802 804 806 808 809 811 812 813 814 815 817 818 819 820 820 822 822 823 824 824 824 824 824 824 823 823 823 823 822 822 822 822 822 822 821 821 821 821 821 821 821 820 820 819 819
745 743 737 736 733 732 723 715 714 716 722 726 730 729 725 729 730 724 728 734 725 713 709 709 716 723 726 732 737 743 747 748 749 750 751 754 758 762 765 769 772 775 778 780 783 786 788 791 793 796 798 800 802 804 806 808 809 811 812 813 814 815 816 817 818 819 820 821 823 823 823 824 824 824 824 824 824 824 824 823 822 822 822 822 822 822 821 821 821 821 821 821 820 820 820 819 819
742 744 736 733 731 729 724 717 716 720 728 729 727 728 729 735 732 725 727 726 718 713 708 708 713 719 723 730 735 740 744 745 746 750 755 758 759 761 764 767 771 774 776 779 782 785 788 791 793 796 798 800 802 804 806 807 809 810 812 813 814 815 816 818 819 819 820 821 822 823 823 824 824 824 824 824 824 823 824 823 823 822 822 822 822 821 821 821 821 820 820 820 820 820 819 819 818
738 741 735 731 728 726 723 720 719 723 729 729 730 733 731 730 727 727 727 720 715 712 710 709 713 720 724 729 735 739 742 745 750 760 766 767 766 765 766 767 770 773 775 779 782 785 788 791 793 796 798 800 802 804 806 807 809 810 811 813 814 815 817 818 819 819 819 821 822 822 823 824 824 824 824 824 824 824 824 823 823 822 822 822 822 821 821 821 820 820 820 819 819 819 818 817 817
733 735 734 731 728 723 721 722 721 724 727 728 734 736 731 725 726 730 725 716 713 709 711 712 715 724 727 730 735 737 742 750 760 769 771 768 767 767 767 767 769 772 775 778 782 785 788 791 793 796 797 800 802 804 806 807 809 810 811 813 814 815 817 818 818 819 820 821 822 822 823 823 823 824 824 824 824 824 823 823 823 822 822 822 822 821 821 820 820 819 819 818 818 817 817 817 816
726 729 730 729 728 722 720 722 720 722 725 727 734 736 730 724 729 735 723 713 714 711 714 715 718 727 730 732 735 737 745 754 763 768 769 767 764 765 766 767 769 771 776 779 782 785 788 791 794 796 798 800 803 805 807 808 809 811 812 813 814 816 817 818 818 819 820 821 822 822 822 823 823 823 824 824 824 824 823 823 823 822 822 822 821 821 820 820 819 819 818 817 817 816 816 815 815
723 725 727 727 728 725 721 722 722 724 727 725 730 733 729 725 728 731 720 711 712 712 716 718 723 730 731 733 735 740 748 753 756 760 763 764 762 764 765 766 769 772 776 779 782 785 788 791 794 796 798 801 804 806 807 808 810 811 813 814 815 816 817 818 820 820 821 822 822 822 822 822 823 823 823 824 823 824 823 823 823 822 822 821 821 820 819 819 818 818 817 817 816 815 815 814 814
724 724 731 731 728 729 725 722 722 725 728 721 725 737 735 729 726 721 713 708 707 710 716 719 724 730 731 733 735 741 748 750 752 754 757 761 761 762 764 766 769 773 776 780 783 786 789 792 794 796 799 802 804 806 807 809 810 812 813 814 815 817 818 819 821 821 821 822 822 822 822 822 822 823 823 823 824 824 824 823 823 822 822 821 820 819 819 818 818 817 817 816 816 815 814 813 813
727 725 732 736 735 733 724 720 721 724 725 716 726 746 742 728 721 713 707 706 708 715 718 719 725 730 730 732 735 740 748 752 755 756 759 763 763 761 763 766 769 773 777 781 784 786 790 792 795 797 799 802 805 806 808 809 811 812 813 814 816 817 819 821 822 822 822 821 821 822 822 822 822 823 823 823 824 824 823 823 823 822 822 821 820 819 819 818 818 817 816 816 815 814 813 813 812
731 732 734 737 742 736 719 716 721 725 723 714 726 746 740 724 715 710 706 707 713 720 720 719 724 729 729 731 735 742 749 753 757 760 762 765 766 763 762 765 769 773 777 781 785 787 791 793 796 798 800 803 805 806 808 810 811 812 813 814 816 818 819 822 823 824 823 822 821 821 822 822 822 823 823 823 823 823 823 823 823 822 821 821 820 819 818 818 817 817 816 815 814 814 813 812 811
731 740 743 737 740 736 717 711 716 724 721 713 727 742 735 721 712 707 706 707 713 719 720 721 724 725 726 730 735 744 751 754 759 764 767 769 769 764 762 765 770 773 777 782 786 788 791 795 797 799 802 804 806 807 809 810 811 811 813 814 816 817 818 820 823 825 825 824 823 822 822 822 822 822 823 823 823 823 823 823 822 822 821 821 820 819 818 818 817 816 816 815 814 813 812 811 810
731 737 744 736 736 736 722 709 706 715 719 715 725 734 731 723 715 711 709 710 714 718 722 727 729 725 725 733 738 746 756 761 764 770 774 775 774 769 767 770 773 775 779 783 787 790 793 796 798 801 804 805 806 808 809 810 811 811 813 815 817 817 817 817 821 824 826 826 824 822 822 822 822 822 823 823 823 823 822 822 822 822 821 820 820 819 818 817 817 816 815 815 814 813 812 811 810
734 732 738 733 729 730 726 713 700 706 717 718 721 726 726 723 719 718 717 717 718 721 726 730 735 738 740 747 750 754 763 767 769 774 777 778 777 775 775 776 779 782 785 788 790 793 795 798 800 802 804 806 807 807 808 809 810 812 813 815 817 817 817 816 820 823 825 827 826 823 822 822 822 822 823 823 822 822 822 822 822 821 821 820 820 819 818 817 817 816 815 814 814 813 812 811 809
735 734 737 734 726 722 722 712 698 703 716 718 719 724 726 725 723 722 721 722 723 725 728 729 740 753 755 758 760 762 768 768 770 773 774 775 776 777 778 779 781 784 788 792 795 796 797 799 800 802 803 805 806 806 808 809 811 812 813 815 816 817 817 817 820 822 824 828 828 825 823 822 822 823 823 823 822 822 822 822 822 821 821 821 820 819 818 817 816 815 815 814 813 812 811 810 809
726 725 728 732 726 718 712 703 692 699 714 717 717 721 725 728 728 726 725 724 725 727 728 733 748 760 760 760 762 764 768 768 769 769 767 769 771 772 774 776 778 780 783 788 793 795 795 797 798 800 802 803 804 806 807 809 811 812 813 815 816 817 818 819 822 823 824 828 829 825 823 823 823 823 823 823 823 822 822 822 821 821 821 820 819 819 818 817 816 815 814 813 812 811 810 810 809
716 716 718 721 721 715 705 697 688 692 710 716 712 714 718 724 726 723 724 726 726 729 731 737 752 763 763 762 762 765 768 767 766 765 763 765 769 770 771 774 778 781 784 786 788 790 793 796 798 799 801 803 804 805 807 809 811 812 813 814 816 817 818 820 822 823 825 829 828 825 824 823 823 823 823 823 823 823 822 822 822 822 821 820 820 819 818 817 816 815 814 813 812 811 810 809 809
714 713 713 714 717 711 698 693 687 687 706 713 708 711 712 715 721 719 720 726 728 729 731 740 753 761 764 764 765 769 770 767 765 764 763 764 768 771 772 775 778 781 784 786 787 790 793 796 798 799 801 803 804 805 806 808 810 812 813 814 816 818 818 821 821 823 828 829 826 825 824 824 823 823 824 824 824 823 823 822 822 822 821 821 820 819 819 817 816 815 814 813 812 811 810 809 809
718 713 711 712 711 706 697 688 681 683 703 711 706 712 710 704 712 715 716 722 725 725 727 739 754 758 760 764 766 770 772 769 766 765 765 764 765 768 772 774 777 779 782 784 787 790 793 794 796 799 801 803 804 806 806 808 810 812 813 815 816 817 819 820 821 825 830 828 826 825 825 824 825 824 824 824 824 824 823 823 822 822 822 821 821 820 819 818 817 815 814 813 812 812 811 810 809
719 714 712 710 703 706 705 690 680 685 701 707 704 711 710 703 713 719 717 719 721 723 725 737 753 757 757 759 761 768 773 769 766 765 765 763 762 765 770 774 775 778 781 782 785 788 791 793 795 797 800 802 804 805 807 808 810 811 813 815 816 817 819 819 821 826 829 827 826 826 826 826 825 825 825 825 824 824 824 824 824 823 823 822 821 820 819 818 817 816 815 814 813 812 811 810 809
718 712 710 705 698 702 700 688 685 693 702 704 706 717 713 705 719 728 721 719 722 724 727 737 752 757 757 757 758 764 767 765 764 764 764 762 759 761 767 772 774 777 780 781 783 786 790 793 795 797 799 801 803 805 808 809 811 812 814 815 816 818 818 819 823 827 827 826 826 826 826 826 826 825 825 825 825 825 825 825 825 825 824 823 822 821 820 818 817 816 815 814 814 813 812 810 809
719 710 703 699 695 694 693 691 698 714 720 708 710 733 726 707 718 729 724 725 731 731 732 740 752 756 756 756 756 760 762 762 762 762 763 762 756 758 765 769 772 776 779 781 782 785 789 793 794 797 799 801 803 805 808 810 812 812 814 816 816 818 820 823 825 826 826 826 826 826 826 827 826 826 826 826 826 826 826 826 826 826 825 824 822 821 820 818 817 816 815 815 814 814 813 811 810
719 707 698 697 695 691 691 695 706 725 729 709 706 732 733 715 720 727 727 733 737 738 739 743 753 759 758 757 755 757 759 760 760 760 763 763 759 760 766 769 772 775 778 780 782 785 789 792 794 796 798 801 803 805 808 811 812 812 814 815 816 816 821 828 829 826 826 826 826 827 826 827 827 827 827 827 827 827 827 827 827 826 825 824 823 821 820 819 817 816 816 815 815 814 813 812 811
714 700 696 700 698 694 691 691 699 709 716 709 701 715 727 722 723 726 728 737 740 739 744 746 754 764 766 764 759 755 756 757 757 758 760 762 761 763 767 771 774 776 778 780 782 786 789 792 795 796 798 800 802 805 808 810 811 812 814 815 816 816 821 830 831 827 826 826 826 827 827 828 828 828 828 828 828 828 828 828 828 827 826 824 823 821 820 819 818 817 816 816 815 814 813 813 812
705 693 694 698 697 696 692 692 696 698 712 723 706 705 725 726 725 729 726 734 743 741 743 748 753 761 766 766 763 757 754 753 755 757 759 759 760 764 768 772 776 778 780 781 782 786 789 792 794 796 798 800 802 804 806 808 810 811 813 814 817 818 822 831 832 828 827 826 827 828 827 828 828 828 829 828 829 829 829 829 828 827 826 824 823 821 820 820 819 818 817 816 815 815 814 813 812
697 689 691 695 695 696 697 696 696 700 719 731 709 702 725 727 726 738 735 733 741 740 740 745 748 754 758 760 763 764 759 753 753 757 758 760 761 765 769 773 777 780 781 782 784 786 788 791 793 795 797 800 801 803 805 807 809 811 812 813 815 817 824 831 830 828 827 827 827 828 828 829 829 829 829 829 829 830 830 829 828 828 826 825 823 822 821 820 819 818 818 817 816 815 814 813 813
693 690 693 700 699 697 701 692 692 714 732 727 705 696 716 727 719 723 729 727 728 733 738 742 744 748 753 757 763 768 766 759 757 759 759 762 764 766 771 774 777 780 781 783 784 786 788 790 792 794 796 799 800 802 804 807 810 811 812 813 813 817 825 830 828 827 828 828 828 828 828 828 829 829 829 829 830 831 831 830 829 828 826 825 824 823 822 821 820 819 818 817 816 816 815 814 813
693 695 697 707 711 710 716 707 705 730 736 718 700 689 706 727 714 700 706 710 714 726 733 737 741 744 748 756 761 764 765 761 758 759 761 764 767 769 772 774 777 780 781 783 785 786 788 790 791 792 795 797 799 802 805 807 810 811 813 814 814 818 825 827 826 827 828 828 828 828 828 828 829 829 829 829 831 832 831 830 829 828 827 826 825 823 822 822 821 820 819 818 817 816 815 815 814
696 698 701 716 729 735 741 734 728 735 728 707 695 693 702 710 698 689 694 698 704 714 721 727 734 738 741 747 751 753 755 756 753 754 759 764 767 769 771 774 776 779 781 784 786 787 788 790 791 792 794 796 798 802 805 808 810 811 813 814 815 819 823 825 826 827 827 827 827 827 827 828 829 829 830 831 832 833 832 831 830 829 828 827 825 824 823 822 821 820 819 818 817 817 816 816 815
698 700 703 714 732 751 757 746 740 740 728 705 691 696 709 706 688 682 685 687 692 699 707 716 723 730 735 737 741 746 748 751 751 750 755 761 765 768 771 775 776 779 782 783 785 787 788 790 791 792 794 796 799 801 805 808 810 811 813 813 816 819 822 824 826 827 827 826 826 827 828 829 829 830 831 832 833 833 832 831 830 829 828 827 825 824 823 823 822 821 820 819 818 818 818 817 817
695 692 696 704 714 738 751 744 741 741 727 710 699 703 718 717 694 676 675 677 683 691 698 709 716 723 730 733 737 743 746 749 750 749 753 758 762 767 772 775 777 779 782 783 785 786 787 789 790 792 795 797 798 801 804 807 809 811 812 813 816 819 822 824 825 826 826 826 827 828 829 829 830 830 832 834 834 833 832 831 831 830 828 827 826 825 824 823 823 822 821 820 820 820 819 818 818
693 687 699 707 701 710 727 728 724 730 730 719 711 708 704 701 686 672 671 673 679 689 695 705 717 720 725 731 735 738 741 745 747 749 753 757 761 766 771 774 777 780 782 783 784 785 787 789 791 793 796 798 799 800 802 805 809 811 812 814 817 820 822 823 825 825 826 827 828 828 829 830 830 832 833 834 834 833 833 832 831 830 829 828 826 826 825 824 823 823 822 822 821 821 820 820 819
692 694 704 701 688 692 715 725 716 725 740 726 713 712 700 693 690 679 678 679 681 689 693 702 715 719 724 730 732 736 739 742 746 749 752 756 760 765 770 773 776 779 783 784 785 786 787 788 791 793 796 798 799 800 803 806 809 812 814 816 818 820 822 823 824 826 826 827 829 829 830 831 832 833 834 834 834 833 833 832 831 830 829 828 827 826 826 825 824 824 823 823 823 822 822 821 821
689 700 698 688 688 688 701 724 728 734 746 728 713 716 709 708 706 691 689 693 691 691 694 703 712 718 725 730 732 736 738 740 745 748 752 756 761 764 768 772 775 778 781 783 784 785 786 788 790 793 796 798 800 801 804 807 809 812 815 817 819 820 822 823 824 826 827 828 829 830 831 832 833 834 834 834 834 833 832 831 831 830 829 828 828 827 826 826 825 825 825 825 824 824 823 823 822
681 689 685 687 704 706 702 719 733 740 747 735 719 712 708 709 704 693 696 701 699 698 699 705 712 717 723 729 732 736 738 741 745 748 752 757 762 764 767 771 774 777 780 781 782 784 787 790 792 794 797 799 801 802 805 807 809 813 816 817 819 821 822 823 824 826 827 828 829 830 831 832 833 834 834 834 833 833 832 831 831 830 829 829 828 827 827 826 826 826 826 826 826 825 825 824 824
677 680 682 685 696 703 703 708 717 729 741 740 729 717 708 698 685 685 695 696 698 704 704 707 712 715 720 725 730 734 737 741 744 747 750 755 761 764 766 771 774 778 781 782 784 786 787 791 793 795 798 799 801 803 805 808 810 813 816 818 820 821 823 824 825 826 827 828 829 831 832 833 833 834 833 833 833 833 832 831 831 830 829 829 829 828 828 827 827 827 827 827 827 826 826 826 825
684 686 691 692 690 692 697 698 697 710 729 737 735 729 710 687 676 680 687 688 692 698 703 707 709 712 718 722 727 731 734 739 743 746 749 753 759 764 768 773 775 780 784 784 785 787 788 791 793 795 797 799 802 804 806 809 812 815 817 819 821 822 824 825 826 827 828 829 830 831 832 833 833 834 834 833 833 832 832 831 831 830 830 829 829 829 828 828 828 828 828 828 828 828 827 827 827
685 688 688 691 692 695 707 711 696 694 712 721 729 733 709 680 676 680 680 682 687 689 695 703 706 711 716 720 724 728 731 737 741 744 748 752 758 765 771 774 776 781 784 784 785 787 789 792 794 796 799 801 804 806 808 811 814 816 818 819 821 823 824 826 827 828 829 830 831 831 832 833 834 834 834 833 833 832 832 831 831 831 830 830 829 829 829 829 829 829 829 829 829 829 829 828 828